Volver al catálogo

STARLINK-3737

ActivoComunicacionesVLEO
NORAD 52114·PAYLOAD·🇺🇸 United States

Lanzado Mar 19, 2022 desde Cape Canaveral Space Force Station

Loading…

Próximos Pases (próximas 24 horas)

TLE

ActualizadoSource: CelesTrak SupGP

Época: Sep 14, 2026, 22:08 UTC

1 52114C 22029AC  26257.92270833  .00035227  00000+0  10410-2 0  2577
2 52114  53.1581 295.4341 0001132  94.1860 330.0287 15.34366700    10

Sigue STARLINK-3737 en tiempo real con AllMySat

Download on the App Store